Location: Brno
(49.2000°N, 16.6330°E)
Time: 19:09:47
(UTC+02:00)

Transit 4A - Pass Details

Date: 27 July 2021
Orbit: 871 x 974 km, 66.8° (Epoch: 16 September)

Event Time Altitude Azimuth Distance (km) Brightness Sun altitude
Rises 12:16:22 0° 311° (NW) 3,479 10.6 58.7°
Reaches altitude 10° 12:19:55 10° 290° (WNW) 2,547 10.1 58.8°
Maximum altitude 12:23:07 15° 256° (WSW) 2,208 10.1 59.0°
Drops below altitude 10° 12:26:19 10° 223° (SW) 2,567 10.6 59.2°
Sets 12:29:57 0° 202° (SSW) 3,523 11.3 59.3°
